Odiham, United Kingdom

9:06 AM BST on July 28, 2017 (GMT +0100)
Odiham Air Base

Weather History for EGVO - November, 2012

Change the Weather History Date:

Tuesday, November 20, 2012

  Actual Average Record
Temperature  
Mean Temperature 52 °F -  
Max Temperature 54 °F - - ()
Min Temperature 50 °F - - ()
Degree Days  
Heating Degree Days 13    
Growing Degree Days 2 (Base 50)    
Moisture  
Dew Point 51 °F    
Average Humidity 94    
Maximum Humidity 100    
Minimum Humidity 89    
Precipitation  
Precipitation 0.24 in - - ()
Sea Level Pressure  
Sea Level Pressure 29.75 in    
Wind  
Wind Speed 15 mph ()    
Max Wind Speed 24 mph    
Max Gust Speed -    
Visibility 5.0 miles    
Events Rain    
T = Trace of Precipitation, MM = Missing Value Source: Averaged Metar Reports

Daily Weather History Graph

Daily Weather History Graph

Search for Another Location

Airport or City:

Trip Planner

Search our weather history database for the weather conditions in past years. The results will help you decide how hot, cold, wet, or windy it might be!

Date:

Astronomy

Nov. 20, 2012 Rise Set
Actual Time 7:29 AM GMT 4:08 PM GMT
Civil Twilight 6:52 AM GMT 4:46 PM GMT
Nautical Twilight 6:11 AM GMT 5:27 PM GMT
Astronomical Twilight 5:31 AM GMT 6:06 PM GMT
Moon 12:34 PM GMT (11/20) 11:50 PM GMT (11/20)
Length of Visible Light 9h 53m
Length of Day
8h 39m
Waxing Crescent, 49% of the Moon is Illuminated
Nov 20
Waxing Crescent
Nov 20
First Quarter
Nov 28
Full
Dec 6
Last Quarter
Dec 13
New

Hourly Weather History & Observations

Time (GMT) Temp. Dew Point Humidity Pressure Visibility Wind Dir Wind Speed Gust Speed Precip Events Conditions
12:50 AM 51.8 °F 50.0 °F 94% 29.77 in 6.2 mi South 17.3 mph - N/A Rain Light Rain
1:50 AM 51.8 °F 50.0 °F 94% 29.77 in 6.2 mi South 15.0 mph - N/A   Mostly Cloudy
2:50 AM 51 °F 50 °F 94% 29.77 in 5 mi South 17.3 mph - - Rain Light Rain
2:50 AM 51.8 °F 50.0 °F 94% 29.74 in 5.0 mi South 17.3 mph - N/A Rain Light Rain
3:50 AM 51.8 °F 50.0 °F 94% 29.74 in 1.9 mi SSE 15.0 mph - N/A Rain Rain
4:50 AM 51.8 °F 50.0 °F 94% 29.74 in 1.2 mi South 17.3 mph - N/A Rain Light Rain
5:50 AM 53 °F 51 °F 92% 29.75 in 7 mi South 16.1 mph - - Rain Light Rain
5:50 AM 53.6 °F 51.8 °F 94% 29.74 in 6.2 mi South 16.1 mph - N/A Rain Light Rain
7:50 AM 53.6 °F 51.8 °F 94% 29.74 in 6.2 mi South 19.6 mph - N/A Rain Rain
8:50 AM 54 °F 52 °F 89% 29.75 in 7 mi South 21.9 mph - - Rain Light Rain
8:50 AM 53.6 °F 51.8 °F 94% 29.74 in 6.2 mi South 21.9 mph - N/A Rain Light Rain
9:50 AM 53.6 °F 51.8 °F 94% 29.74 in 6.2 mi South 23.0 mph - N/A Rain Light Rain
10:50 AM 53.6 °F 51.8 °F 94% 29.74 in 6.2 mi South 20.7 mph - N/A Rain Light Rain
11:50 AM 54 °F 52 °F 89% 29.76 in 6 mi South 24.2 mph - - Rain Light Rain
11:50 AM 53.6 °F 51.8 °F 94% 29.74 in 6.2 mi South 24.2 mph - N/A Rain Light Rain
12:50 PM 53.6 °F 51.8 °F 94% 29.74 in 6.2 mi South 21.9 mph - N/A Rain Light Rain
1:50 PM 53.6 °F 51.8 °F 94% 29.74 in 6.2 mi South 19.6 mph - N/A Rain Light Rain
2:50 PM 53 °F 51 °F 90% 29.75 in 3 mi SSE 20.7 mph - - Rain Rain
2:50 PM 53.6 °F 51.8 °F 94% 29.74 in 3.1 mi SSE 20.7 mph - N/A Rain Rain
3:50 PM 51.8 °F 50.0 °F 94% 29.74 in 3.1 mi South 20.7 mph - N/A Rain Light Rain
4:50 PM 53.6 °F 51.8 °F 94% 29.74 in 6.2 mi South 20.7 mph - N/A Rain Light Rain
5:50 PM 53 °F 51 °F 92% 29.77 in 4 mi South 17.3 mph - - Rain Light Rain
5:50 PM 53.6 °F 51.8 °F 94% 29.74 in 4.3 mi South 17.3 mph - N/A Rain Light Rain
7:50 PM 53.6 °F 51.8 °F 94% 29.77 in 3.1 mi South 11.5 mph - N/A Rain Light Rain
8:50 PM 53 °F 52 °F 95% 29.79 in 2 mi South 10.4 mph - - Rain Light Rain
8:50 PM 53.6 °F 51.8 °F 94% 29.77 in 1.9 mi South 10.4 mph - N/A Rain Light Rain
9:50 PM 51.8 °F 51.8 °F 100% 29.77 in 6.2 mi South 6.9 mph - N/A Rain Light Rain
10:50 PM 50.0 °F 50.0 °F 100% 29.77 in 6.2 mi South 4.6 mph - N/A Rain Light Rain
11:50 PM 51 °F 50 °F 95% 29.77 in 6 mi South 6.9 mph - - Rain Light Rain
11:50 PM 51.8 °F 50.0 °F 94% 29.74 in 6.2 mi South 6.9 mph - N/A Rain Light Rain